Hanford, CA

2:27 AM PST on February 09, 2016 (GMT -0800)
Hanford Municipal

Weather History for KHJO - August, 2012

Change the Weather History Date:

Wednesday, August 15, 2012

  Actual Average Record
Temperature  
Mean Temperature 87 °F 78 °F  
Max Temperature 105 °F 96 °F 105 °F (2012)
Min Temperature 69 °F 61 °F 52 °F (2009)
Degree Days  
Heating Degree Days 0    
Month to date heating degree days 0  
Since 1 June heating degree days 3  
Since 1 July heating degree days 0  
Cooling Degree Days 22    
Month to date cooling degree days 290  
Year to date cooling degree days 1311  
Since 1 June cooling degree days 1071  
Growing Degree Days 38 (Base 50)    
Moisture  
Dew Point 55 °F    
Average Humidity 36    
Maximum Humidity 54    
Minimum Humidity 18    
Precipitation  
Precipitation 0.00 in 0.00 in 0.16 in (1976)
Month to date precipitation 0.00 0.00  
Year to date precipitation 4.58 6.78  
Since 1 July precipitation T  
Snow  
Snow 0.00 in - - ()
Month to date snowfall 0.0  
Since 1 June snowfall 0.0  
Since 1 July snowfall 0.0  
Snow Depth 0.00 in    
Sea Level Pressure  
Sea Level Pressure 29.75 in    
Wind  
Wind Speed 5 mph (NW)    
Max Wind Speed 14 mph    
Max Gust Speed 18 mph    
Visibility 10 miles    
Events      
T = Trace of Precipitation, MM = Missing Value Source: NWS Daily Summary

Daily Weather History Graph

Daily Weather History Graph

Search for Another Location

Airport or City:

Trip Planner

Search our weather history database for the weather conditions in past years. The results will help you decide how hot, cold, wet, or windy it might be!

Date:

Astronomy

Aug. 15, 2012 Rise Set
Actual Time 6:16 AM PDT 7:48 PM PDT
Civil Twilight 5:49 AM PDT 8:15 PM PDT
Nautical Twilight 5:16 AM PDT 8:48 PM PDT
Astronomical Twilight 4:42 AM PDT 9:22 PM PDT
Moon 4:20 AM PDT (8/15) 6:24 PM PDT (8/15)
Length of Visible Light 14h 25m
Length of Day
13h 31m
Waning Crescent, 4% of the Moon is Illuminated
Aug 15
Waning Crescent
Aug 17
New
Aug 24
First Quarter
Aug 31
Full
Sep 8
Last Quarter

Hourly Weather History & Observations

Time (PDT) Temp. Heat Index Dew Point Humidity Pressure Visibility Wind Dir Wind Speed Gust Speed Precip Events Conditions
12:53 AM 82.0 °F 81.4 °F 55.0 °F 39% 29.72 in 10.0 mi NW 10.4 mph - N/A   Clear
1:53 AM 75.9 °F - 57.9 °F 54% 29.73 in 10.0 mi NE 3.5 mph - N/A   Clear
2:53 AM 75.9 °F - 57.0 °F 52% 29.71 in 10.0 mi NNW 5.8 mph - N/A   Clear
3:53 AM 75.0 °F - 57.9 °F 55% 29.73 in 10.0 mi West 5.8 mph - N/A   Clear
4:53 AM 73.9 °F - 55.9 °F 53% 29.74 in 10.0 mi West 3.5 mph - N/A   Clear
5:53 AM 71.1 °F - 54.0 °F 55% 29.76 in 10.0 mi Calm Calm - N/A   Clear
6:53 AM 73.9 °F - 48.0 °F 40% 29.77 in 10.0 mi NW 5.8 mph - N/A   Clear
7:53 AM 77.0 °F - 48.0 °F 36% 29.78 in 10.0 mi NNW 9.2 mph - N/A   Clear
8:53 AM 79.0 °F - 46.9 °F 32% 29.78 in 10.0 mi NW 4.6 mph - N/A   Clear
9:53 AM 84.0 °F - 51.1 °F 32% 29.79 in 10.0 mi Calm Calm - N/A   Clear
10:53 AM 90.0 °F 87.5 °F 53.1 °F 28% 29.79 in 10.0 mi Calm Calm - N/A   Clear
11:53 AM 93.9 °F - 50.0 °F 22% 29.78 in 10.0 mi East 3.5 mph - N/A   Clear
12:53 PM 96.1 °F - 48.9 °F 20% 29.78 in 10.0 mi SSW 5.8 mph - N/A   Clear
1:53 PM 98.1 °F - 52.0 °F 21% 29.76 in 10.0 mi Calm Calm - N/A   Clear
2:53 PM 102.0 °F 99.7 °F 53.1 °F 19% 29.74 in 10.0 mi Variable 3.5 mph - N/A   Clear
3:53 PM 102.0 °F 103.3 °F 61.0 °F 26% 29.72 in 10.0 mi Variable 3.5 mph - N/A   Partly Cloudy
4:53 PM 105.1 °F 103.3 °F 54.0 °F 18% 29.70 in 10.0 mi Variable 3.5 mph - N/A   Clear
5:53 PM 100.0 °F 101.2 °F 61.0 °F 28% 29.70 in 10.0 mi NNE 5.8 mph - N/A   Clear
6:53 PM 98.1 °F 99.1 °F 62.1 °F 30% 29.70 in 10.0 mi Calm Calm - N/A   Clear
7:53 PM 93.0 °F 94.2 °F 63.0 °F 37% 29.71 in 10.0 mi West 3.5 mph - N/A   Clear
8:53 PM 93.0 °F 93.8 °F 62.1 °F 36% 29.74 in 10.0 mi WNW 6.9 mph - N/A   Clear
9:53 PM 89.1 °F 89.0 °F 61.0 °F 39% 29.76 in 10.0 mi NW 11.5 mph - N/A   Clear
10:53 PM 84.0 °F 84.4 °F 61.0 °F 46% 29.79 in 10.0 mi NW 13.8 mph - N/A   Clear
11:53 PM 82.9 °F 82.1 °F 55.9 °F 39% 29.80 in 10.0 mi NW 12.7 mph - N/A   Clear